Location: St Paul
(33.9360°N, 83.4200°W)
Time: 14:38:16
(UTC-04:00)

USA 234 - Pass Details

Date: 06 October 2017
Orbit: 1101 x 1107 km, 123.0° (Epoch: 15 October)

Event Time Altitude Azimuth Distance (km) Brightness Sun altitude
Exits shadow 22:28:38 36° 271° (W) 1,667 4.4 -41.0°
Drops below altitude 10° 22:33:00 10° 304° (WNW) 2,966 6.2 -41.8°
Sets 22:35:39 0° 311° (NW) 3,927 6.9 -42.3°
